�ϑ��N����,2018/9/27,,,
�ϑ���,���с@��,,,
�ϑ��n�_,29,,,
���x�v�ԍ�,8,,,
,,,,
����,�C��,����,����,���l
9:30:00,-999,-999,-999,
9:31:00,-999,-999,-999,
9:32:00,21,1,1,
9:33:00,20.8,0,0,
9:34:00,20.8,2,1.5,
9:35:00,20.5,2,1.5,
9:36:00,20.5,2,1.5,
9:37:00,20.8,2,1,
9:38:00,21,8,1,
9:39:00,21,1,1,
9:40:00,21,0,0,
9:41:00,21,3,2,
9:42:00,21,3,2,
9:43:00,20.5,3,1.5,
9:44:00,20.5,7,3.5,
9:45:00,20.5,-999,-999,
9:46:00,20.5,2,0.5,
9:47:00,20.5,1,1,
9:48:00,20.5,7,2,
9:49:00,20.2,7,3,
9:50:00,20.1,7,1,
9:51:00,20.1,7,3,
9:52:00,20.1,7,1.5,
9:53:00,20.1,7,3,
9:54:00,20,7,1,
9:55:00,20.2,7,0.5,
9:56:00,20.5,7,0.1,
9:57:00,20.5,7,0.1,
9:58:00,20.5,7,1.5,
9:59:00,20.5,8,2,
10:00:00,20.2,7,1.5,
10:01:00,20.3,7,1.5,
10:02:00,20.3,7,1.5,
10:03:00,20.4,8,0.5,
10:04:00,20.5,1,0.5,������������o�Ă���
10:05:00,20.5,7,3,
10:06:00,20.5,7,0.5,
10:07:00,20.8,1,0.2,
10:08:00,20.8,7,3.5,
10:09:00,20.8,7,3.5,
10:10:00,20.8,7,2,
10:11:00,20.8,7,1,
10:12:00,20.6,7,1.5,
10:13:00,20.6,7,2,
10:14:00,20.6,7,1,
10:15:00,21,7,0.5,
10:16:00,21,7,0.5,
10:17:00,21,8,0.2,�����o��
10:18:00,21.3,8,0.2,�e�ɂȂ���
10:19:00,21.3,7,0.2,�܂������o��
10:20:00,21.2,0,0,
10:21:00,21.9,7,0.1,
10:22:00,22.2,7,0.2,
10:23:00,22.8,0,0,
10:24:00,22.5,7,0.7,
10:25:00,22.1,7,1.5,
10:26:00,22,7,1,
10:27:00,21.7,7,0.3,
10:28:00,21.5,0,0,
10:29:00,21.7,3,2,
10:30:00,21.5,3,0.2,
10:31:00,21.5,7,0.2,
10:32:00,21.5,3,0.3,
10:33:00,21.3,5,0.5,
10:34:00,21.2,7,1,
10:35:00,21.4,7,0.5,
10:36:00,21.5,3,0.5,
10:37:00,21.2,3,0.1,
10:38:00,21.2,3,0.1,
10:39:00,21.3,4,0.2,
10:40:00,21.5,7,2,
10:41:00,21.8,7,1,���Ȃ����L������
10:42:00,22.1,3,1.5,
10:43:00,22,4,2,
10:44:00,22,4,1,
10:45:00,21.8,4,1,
10:46:00,21.5,4,0.3,
10:47:00,21.5,4,0.5,
10:48:00,21.5,4,0.5,
10:49:00,21.7,3,0.1,
10:50:00,21.7,0,0,
10:51:00,21.6,0,0,
10:52:00,21.8,4,0.1,
10:53:00,22,3,1,
10:54:00,22,3,0.1,
10:55:00,22,3,0.1,
10:56:00,22,3,0.5,�������ʓ��Ȃ�
10:57:00,22.1,3,2,
10:58:00,22,7,1,
10:59:00,22,4,0.5,
11:00:00,22,4,0.5,
11:01:00,22.1,4,0.1,
11:02:00,22.2,4,2,
11:03:00,22.2,4,1,
11:04:00,22,4,1,
11:05:00,22,5,0.3,
11:06:00,22.4,4,1,
11:07:00,22.7,4,0.5,
11:08:00,23,5,0.3,
11:09:00,23.1,4,0.1,
11:10:00,23.4,5,0.2,
11:11:00,23.2,7,1.5,
11:12:00,23,4,2,
11:13:00,22.8,5,0.1,
11:14:00,23,4,2.5,
11:15:00,22.7,4,1,
11:16:00,22.8,7,1,
11:17:00,23.2,7,1,
11:18:00,24.1,7,0.5,
11:19:00,24.1,7,0.5,
11:20:00,23.8,4,0.3,
11:21:00,24,8,1,
11:22:00,24.1,4,2,
11:23:00,23.7,8,1,
11:24:00,24.1,4,0.5,
11:25:00,24.2,7,2,
11:26:00,23.5,7,0.5,
11:27:00,23.5,7,2,
11:28:00,23.1,7,1.5,
11:29:00,24,4,1.5,
11:30:00,24,6,0.5,
